www.pogodaiklimat.ru

Погода и климат >> Архив погоды >> Россия >> Курганская область >> Звериноголовское


ПОГОДА в Звериноголовском

  • Прогноз погоды в Звериноголовском
  • Монитор погоды в Звериноголовском

АРХИВ ПОГОДЫ в Звериноголовском

Время (UTC), дата Ветер
(напр.,м/с)
 
Видим.   Явления Облачность Т
(С)
Тd
(С)
f
(%)
Тe
(С)
Тes
(С)
Комфортность P
(гПа)
Po
(гПа)
Тmin
(С)
Tmax
(С)
R
(мм)
R24
(мм)
S
(см)
12 13.05 В 2 20 км 6/1 1000 м
[Cu med, cong Ac cast]
+24.9 +3.7 25 +24 +27 комфорт 1021.5 1008.0
15 13.05 ЮВ 2 20 км 9/0
[Cs]
+19.9 +5.0 38 +21 +21 комфорт 1020.2 1006.4 +25.1
18 13.05 ЮВ 4 10 км 8/0
[Ac cast]
+16.5 +4.7 46 +16 +16 1018.9 1005.0
21 13.05 Ю 1 10 км ясно +14.1 +6.0 58 +15 +15 1017.0 1003.0
00 14.05 Ю 2 20 км 9/0
[Cs]
+13.6 +7.9 68 +13 +13 1014.8 1000.8
03 14.05 С 2 20 км 4/0
[Cs]
+18.4 +9.6 56 +19 +24 1014.0 1000.2 +13.2
06 14.05 СВ 7-11
{12}
20 км 9/4 1000 м
[Cu Sc Ac lent]
+15.2 +5.0 51 +14 +14 1016.2 1002.2
09 14.05 СВ 7-12
{13}
20 км 9/9 600 м
[Cb cap]
+12.5 +5.4 62 +10 +10 1019.4 1005.3
12 14.05 СВ 4
{12}
20 км 10/6 1000 м
[Sc Ac As]
+10.7 +2.1 55 +9 +9 1020.7 1006.5
15 14.05 СВ 3
{10}
20 км ясно +11.6 -1.1 41 +10 +10 1021.5 1007.3 +21.4
18 14.05 СВ 2 10 км ясно +5.3 -2.3 58 +3 +3 1024.6 1010.1
21 14.05 В 5 10 км ясно +4.0 -3.3 59 -1 -1 1026.0 1011.4
00 15.05 В 5 20 км 4/0
[Ac trans Ci fib]
+1.9 -5.0 60 -3 -3 1027.9 1013.1
03 15.05 В 6 20 км 9/0
[Cc]
+5.0 -6.6 43 +1 +2 1029.4 1014.8 +1.9
06 15.05 СВ 4 20 км 5/0
[Ci fib]
+8.4 -7.5 32 +6 +14 1029.4 1014.9
09 15.05 В 3 20 км 4/0
[Ci fib]
+11.5 -7.9 25 +10 +21 опасность
простуды
1028.3 1014.0
12 15.05 В 3 20 км 3/0
[Ci fib]
+12.6 -10.4 19 +12 +16 1027.5 1013.2
15 15.05 В 2 20 км 3/0
[Ci fib]
+9.8 -8.2 27 +9 +9 1027.1 1012.8 +12.9
18 15.05 ЮВ 2 10 км 1/0
[Ci fib]
+1.5 -8.4 48 -1 -1 1027.9 1013.1
21 15.05 ЮВ 3 10 км ясно +1.0 -5.0 64 -3 -3 1027.9 1013.1
00 16.05 ЮВ 3 20 км ясно +0.3 -5.2 67 -4 -4 1028.1 1013.2
03 16.05 Ю 2 20 км 5/0
[Cc]
+10.3 -6.8 29 +10 +14 1027.7 1013.4 -0.4
06 16.05 ЮВ 2 20 км 6/0
[Cs]
+13.6 -8.8 20 +14 +25 опасность
простуды
1026.5 1012.4
09 16.05 Ю 2 20 км 8/0
[Cc]
+16.7 -9.6 16 +17 +29 опасность
простуды
1024.6 1010.6
12 16.05 Ю 2 20 км 9/0
[Cc]
+17.4 -11.0 13 +18 +23 1022.3 1008.4
15 16.05 Ю 2 20 км 6/0
[Ac trans Cc]
+15.0 -8.6 19 +15 +15 1020.6 1006.6 +17.9
18 16.05 Ю 3 10 км 9/0
[Ac As]
+13.4 -6.7 24 +13 +13 1019.3 1005.2
21 16.05 Ю 3 10 км 8/0
[Cc]
+11.8 -7.7 25 +11 +11 1017.0 1002.8
00 17.05 Ю 5-10
{11}
20 км 9/0
[Ac As]
+10.1 -5.1 34 +8 +8 1015.1 1000.9
03 17.05 Ю 4
{10}
20 км 10/4 600 м
[Sc Ac As]
+11.8 -2.4 37 +10 +11 1013.0 999.0 +9.6
06 17.05 Ю 5
{12}
20 км 10/10 600 м
[Sc]
+15.3 -1.7 31 +14 +14 1008.9 995.1
09 17.05 Ю 5-10
{13}
20 км в посл. час дождь 10/10 600 м
[Sc]
+15.9 +3.6 44 +15 +15 1006.1 992.3
12 17.05 Ю 4
{13}
20 км {дождь} 10/10 600 м
[Sc]
+13.3 +8.2 71 +12 +12 1004.5 990.7
15 17.05 З 1 10 км слаб. дождь 10/10 600 м
[Frnb Ns]
+12.0 +11.0 94 +12 +12 1004.2 990.3 +17.0 3
18 17.05 С 4
{10}
10 км {дождь} 10/10 600 м
[Sc]
+10.3 +7.8 84 +8 +8 1005.9 991.9
21 17.05 СЗ 3
{11}
10 км 10/10 600 м
[Sc]
+6.7 +4.0 83 +4 +4 1006.5 992.2
00 18.05 СЗ 2 20 км 9/9 600 м
[Sc]
+5.4 +3.0 85 +3 +3 1006.7 992.4
03 18.05 СЗ 4 20 км 9/5 600 м
[Cu Sc Ac As]
+7.2 +2.4 72 +4 +5 1006.8 992.6 +5.3 0.3
06 18.05 СЗ 4 20 км 3/3 1000 м
[Cu med, cong Cs]
+10.6 -2.8 39 +9 +15 1005.7 991.6
09 18.05 СЗ 5 20 км 4/4 1000 м
[Cu hum]
+13.9 -3.1 31 +12 +17 1004.4 990.5
12 18.05 З 2 20 км 3/3 1000 м
[Cu hum]
+14.5 -2.7 30 +14 +19 1003.2 989.4
15 18.05 З 5
{10}
20 км {ливн. осадки} 9/9 600 м
[Cb cap]
+10.2 +3.2 62 +7 +7 1003.2 989.2 +16.0
18 18.05 Ю 2 10 км {ливн. осадки, дождь} 9/9 600 м
[Sc]
+7.0 +3.3 77 +5 +5 1002.4 988.3
21 18.05 Ю 1 10 км 5/5 600 м
[Sc]
+6.7 +4.0 83 +6 +6 1000.4 986.3
00 19.05 ЮЗ 1 20 км 8/6 600 м
[Cu Sc Ac trans]
+4.2 +2.5 89 +3 +3 1000.4 986.1
03 19.05 ЮЗ 2 20 км 4/3 600 м
[Cu hum Ac trans]
+7.4 +2.6 72 +6 +9 1000.1 986.0 +4.2
06 19.05 З 3
{10}
20 км 8/6 600 м
[Cb cap Ac trans]
+10.9 +0.3 48 +9 +13 999.5 985.6
09 19.05 З 4-10
{11}
20 км {ливн. осадки} 9/6 600 м
[Cb cap Ac As Ci fib]
+8.8 +0.6 56 +6 +9 1001.0 987.0
12 19.05 З 4-10
{14}
20 км {ливн. осадки} 8/6 600 м
[Cb cap Cs]
+10.3 -1.6 43 +8 +10 1002.5 988.5
15 19.05 З 2
{13}
20 км 3/1 600 м
[Cb cap Ac As]
+7.9 -1.3 52 +6 +7 1004.2 990.1 +11.2
18 19.05 ЮЗ 1 10 км ясно +1.5 -2.0 78 -0 -0 1005.7 991.2
21 19.05 Ю 1 10 км ясно -0.0 -2.5 83 -2 -2 1006.0 991.5
00 20.05 Ю 1 20 км 3/0
[Cs]
-1.0 -2.6 89 -3 -3 1006.4 991.8
03 20.05 З 1 20 км 8/0
[Cs]
+5.7 +0.1 67 +5 +10 1006.2 991.9 -1.6
06 20.05 З 2 20 км 9/9 1000 м
[Cu med, cong]
+11.2 -3.2 36 +11 +12 1005.0 991.0
09 20.05 СЗ 4
{12}
20 км 9/9 1000 м
[Cb cap]
+12.6 -5.0 29 +11 +12 1004.4 990.5

 

Местоположение метеостанции Звериноголовское (Курганская область, Россия): широта 54.47 долгота 64.87 высота над уровнем моря 117 м.

В архиве по умолчанию представлена погода в Звериноголовском за последнюю неделю. Архивные данные за месяц целиком и за предыдущие месяцы, начиная с января 2011 года, Вы можете получить, выбрав интересующий диапазон дат из раскрывающегося списка и нажав кнопку "Ввод!".


*Определитесь, кто Вы:
робот инопланетянин человек

Внимание! Время в таблицах - всемирное. Для получения местного времени необходимо прибавить поправку, которая равна 5 ч.

Смотрите также архив погоды в соседних городах и на ближайших метеорологических станциях:

Погода в Куртамыше (Курганская область, Россия) (57 км)
Погода в Пресногорьковке (Костанайская область, Казахстан) (59 км)
Погода в Целинном (Курганская область, Россия) (78 км)
Погода в Половинном (Курганская область, Россия) (80 км)
Погода в Кургане (Курганская область, Россия) (114 км)
Погода в Шумихе (Курганская область, Россия) (130 км)
Погода в Тимирязево (Северо-Казахстанская область, Казахстан) (133 км)
Погода в Сарыколе (Костанайская область, Казахстан) (135 км)
Погода в Благовещенке (Северо-Казахстанская область, Казахстан) (136 км)
Погода в Октябрьском (Челябинская область, Россия) (140 км)

Пояснения к столбцам:

Ветер - указаны скорость ветра в м/с - средняя за 10 мин, порывы в срок и между сроками (в фигурных скобках) и направление, откуда дует ветер: С - северный, СВ - северо-восточный, В - восточный, ЮВ - юго-восточный, Ю - южный, ЮЗ - юго-западный, З - западный, СЗ - северо-западный.
Видимость - горизонтальная дальность видимости в метрах или километрах. При видимости от 1 до 10 км при отсутствии осадков обычно наблюдается дымка, при ухудшении видимости до 1 км и менее - туман. В сухую погоду видимость может ухудшаться дымом, пылью или мглою.
Явления - указаны атмосферные явления, наблюдавшиеся в срок или в последний час перед сроком; фигурными скобками обозначены явления, наблюдавшиеся между сроками (за 1-3 часа до срока); квадратными скобками обозначены град или гололедные отложения с указанием их диаметра в мм.
Облачность - указаны через наклонную черту общая и нижняя облачность в баллах и высота нижней границы облаков в метрах; квадратными скобками обозначены формы облаков: Ci - перистые, Cs - перисто-слоистые, Cc - перисто-кучевые, Ac - высококучевые, As - высокослоистые, Sc - слоисто-кучевые, Ns - слоисто-дождевые, Cu - кучевые, Cb - кучево-дождевые. Подробнее классификацию облаков см. в Атласе облаков (PDF).
T - Температура воздуха - температура, измеренная на высоте 2 м над землей.
Td - Температура точки росы - температура, при понижении до которой содержащийся в воздухе водяной пар достигнет насыщения.
f - Относительная влажность воздуха - влажноcть воздуха, измеренная на высоте 2 м над землей.
Te - Эффективная температура - температура, которую ощущает одетый по сезону человек в тени. Характеристика душности погоды. При расчете учитывается влияние влажности воздуха и скорости ветра на теплоощущения человека.
Tes - Эффективная температура на солнце - температура, которую ощущает человек, с поправкой на солнечный нагрев. Характеристика знойности погоды. Зависит от высоты солнца над горизонтом, облачности и скорости ветра. Ночью, в пасмурную погоду, а также при ветре 12 м/с и более поправка равна нулю.
P - Атмосферное давление - приведенное к уровню моря атмосферное давление.
Po - Атмосферное давление - измеренное на уровне метеостанции атмосферное давление.
Tmin - Минимальная температура - минимум температуры воздуха на высоте 2 м над землей.
Tmax - Максимальная температура - максимум температуры воздуха на высоте 2 м над землей.
R - Количество осадков - Количество выпавших осадков за период времени, мм. При наведении курсора мыши на число - период времени, за который выпало указанное количество осадков.
R24 - Количество осадков - Количество выпавших осадков за 24 часа, мм.
S - Снежный покров - Высота снежного покрова, см. При наведении курсора мыши на число - состояние снежного покрова и степень покрытия местности в баллах.